Flag for U.S.A. Weather past 2 weeks in Binghamton, New York, U.S.A.

Now
15 °F

Clear.


Feels Like: 6 °F
Forecast: 17 / 42 °F
Wind: 6 mph from Northwest

Location: Binghamton Regional Airport

Current Time: Mar 29, 2015 at 6:51:39 AM

Latest Report: Mar 29, 2015 at 5:53 AM


Visibility: 10 mi

Pressure: 30.23 "Hg

Humidity: 80%

Dew point: 10 °F

Location of BinghamtonLocation

Historic Weather in Binghamton — Graph

°F

Binghamton temperature yesterday

Maximum temperature yesterday: 24 °F (at 12:53 AM)
Minimum temperature yesterday: 15 °F (at 10:53 PM)
Average temperature yesterday: 19 °F

Past Weeks' High & Low Weather Summary

 TemperatureHumidityPressure
High45 °F (Mar 16, 4:53 PM)100% (Mar 14, 7:53 AM)30.37 "Hg (Mar 14, 7:53 AM)
Low11 °F (Mar 24, 3:53 AM)33% (Mar 19, 3:53 PM)29.57 "Hg (Mar 17, 5:53 AM)
Average27 °F74%30.03 "Hg
* Reported Mar 14 5:53 AM — Mar 29 5:53 AM, Binghamton, Weather by CustomWeather, © 2015

Note: Actual official high and low records may vary slightly from our data, if they occured in-between our weather recording intervals... More about our weather records

Advertising

Binghamton weather history for previous 24 hours

 ConditionsComfort  
Time TempWeatherWind HumidityBarometerVisibility
5:53 AM
Sun, Mar 29
15 °FClear.6 mph80%30.23 "Hg10 mi
4:53 AM14 °FClear.7 mph77%30.22 "Hg10 mi
3:53 AM14 °FClear.6 mph73%30.20 "Hg10 mi
2:53 AM14 °FClear.5 mph67%30.20 "Hg10 mi
1:53 AM14 °FClear.3 mph64%30.20 "Hg10 mi
12:53 AM14 °FClear.6 mph64%30.19 "Hg10 mi
11:53 PM
Sat, Mar 28
15 °FClear.5 mph61%30.19 "Hg10 mi
10:53 PM15 °FClear.3 mph61%30.19 "Hg10 mi
9:53 PM16 °FClear.7 mph59%30.17 "Hg10 mi
8:53 PM16 °FPassing clouds.9 mph59%30.16 "Hg10 mi
7:53 PM17 °FScattered clouds.10 mph54%30.12 "Hg10 mi
6:53 PM18 °FOvercast.12 mph54%30.09 "Hg10 mi
5:53 PM19 °FOvercast.15 mph52%30.06 "Hg10 mi
4:53 PM20 °FOvercast.14 mph55%30.02 "Hg10 mi
3:53 PM20 °FOvercast.16 mph55%30.00 "Hg10 mi
2:53 PM20 °FMostly cloudy.12 mph57%29.99 "Hg10 mi
1:53 PM20 °FOvercast.20 mph60%29.98 "Hg10 mi
12:53 PM19 °FMostly cloudy.12 mph68%29.98 "Hg10 mi
11:53 AM19 °FLight snow. Overcast.15 mph71%29.98 "Hg5 mi
10:53 AM19 °FMostly cloudy.14 mph68%29.98 "Hg10 mi
9:53 AM19 °FOvercast.17 mph68%29.96 "Hg10 mi
8:53 AM18 °FOvercast.13 mph71%29.94 "Hg10 mi
7:53 AM16 °FOvercast.10 mph77%29.93 "Hg10 mi
6:53 AM16 °FOvercast.10 mph80%29.91 "Hg10 mi
6:01 AM17 °FPartly cloudy.16 mph80%29.83 "Hg10 mi
Weather by CustomWeather, © 2015

See weather overviewHow to use our weather pages